Location: Ajisawe
(8.4333°N, 4.3833°E)
Time: 13:20:41
(UTC+00:00)

Courier 1B Rocket - Pass Details

Date: 01 May 2021
Orbit: 920 x 1202 km, 28.2° (Epoch: 07 May)

Event Time Altitude Azimuth Distance (km) Brightness Sun altitude
Rises 19:02:44 0° 314° (NW) 3,566 9.1 -17.5°
Reaches altitude 10° 19:05:51 10° 328° (NNW) 2,647 8.0 -18.2°
Maximum altitude 19:10:53 24° 21° (NNE) 1,888 6.5 -19.4°
Enters shadow 19:14:06 17° 58° (ENE) 2,276 6.6 -20.1°
Drops below altitude 10° 19:16:08 10° 72° (ENE) 2,777 - -20.6°
Sets 19:19:28 0° 86° (E) 3,781 - -21.4°
